Location: Unspecified
(0.0000°N, 0.0000°E)
Time: 19:18:54
(UTC+00:00)

Envisat - Pass Details

Date: 12 February 2019
Orbit: 764 x 766 km, 98.1° (Epoch: 19 August)

Event Time Altitude Azimuth Distance (km) Brightness Sun altitude
Rises 20:15:24 0° 203° (SSW) 3,227 6.7 -29.4°
Reaches altitude 10° 20:18:56 10° 229° (SW) 2,299 6.2 -30.2°
Maximum altitude 20:21:18 13° 257° (WSW) 2,072 6.1 -30.8°
Drops below altitude 10° 20:23:40 10° 286° (WNW) 2,295 6.1 -31.4°
Sets 20:27:13 0° 312° (NW) 3,218 6.6 -32.2°
